Regional Weather Roundup
Issued by NWS

Home | Current Version | Previous Version | Text Only | Print | Product List | Glossary On
Versions: 1 2 3 4 5 6 7 8 9 10 11 12 13 14 15 16 17 18 19 20 21 22 23 24 25 26 27 28 29 30 31 32 33 34 35 36 37 38 39 40 41 42 43 44 45 46 47 48 49 50
000
ASUS43 KDTX 031610
RWRMI
MICHIGAN HOURLY REGIONAL WEATHER ROUNDUP
NATIONAL WEATHER SERVICE DETROIT/PONTIAC MI
1200 PM EDT THU SEP 03 2015

NOTE: "FAIR" INDICATES FEW OR NO CLOUDS BELOW 12,000 FEET WITH NO
SIGNIFICANT WEATHER AND/OR OBSTRUCTION TO VISIBILITY.

MIZ047>049-052>055-059>063-066>070-074>076-081>083-031700-
SOUTHEAST LOWER MICHIGAN

CITY           SKY/WX    TMP DP  RH WIND       PRES   REMARKS
ADRIAN         MOSUNNY   86  69  56 VRB7      29.98F HX  90
ALMA           RAIN      68  67  98 NE3       29.97R
ANN ARBOR      MOSUNNY   83  72  69 S7        29.97F
BAD AXE        PTSUNNY   77  72  83 S3        29.96R
CARO           RAIN      68  65  90 NW14G24   29.99R
DETROIT CITY   SUNNY     85  70  60 VRB5      29.96F
DETROIT        MOSUNNY   85  70  60 S6        29.97S
FLINT          PTSUNNY   85  70  60 VRB3      29.96S
GROSSE ILE     SUNNY     81  73  78 S7        29.96S
HILLSDALE      MOSUNNY   85  70  61 W6        30.01S
HOWELL         MOSUNNY   87  67  51 W12       29.97S HX  90

CITY           SKY/WX    TMP DP  RH WIND       PRES   REMARKS
JACKSON        MOSUNNY   82  71  69 W7        29.98F
LAMBERTVILLE   MOSUNNY   87  69  53 W3        29.98S HX  91
LANSING        LGT RAIN  75  70  84 W10       29.98R
LAPEER         FAIR      83  70  63 S6        29.97S
MASON          PTSUNNY   82  68  63 W6        29.97S
MONROE         SUNNY     86  69  58 SW8       29.96S HX  90
MT. CLEMENS    MOSUNNY   84  71  66 S5        29.94S
PONTIAC        PTSUNNY   84  70  62 SW7       29.96F
PORT HOPE        N/A     71  70  96 SE8       29.94S
PORT HURON     SUNNY     81  70  69 CALM      29.96S
TRI CITIES     LGT RAIN  69  65  86 SW6       29.98S FOG
MIDLAND        LGT RAIN  68  66  96 CALM      29.95F
TROY           SUNNY     86  70  58 S5        29.98F HX  91
SAGINAW HB     LGT RAIN  66  64  94 S5        29.97F
$$
MIZ043>046-050>051-056>058-064>065-071>073-077>080-031700-
SOUTHWEST LOWER MICHIGAN

CITY           SKY/WX    TMP DP  RH WIND       PRES   REMARKS
BATTLE CREEK   FAIR      84  71  65 SW8       29.98F
BENTON HARBOR  MOSUNNY   83  69  62 W12       29.96F
BIG RAPIDS     CLOUDY    70  69  95 CALM      29.94S
COLDWATER      MOSUNNY   85  68  57 W8        29.99F
FREMONT        PTSUNNY   75  73  94 SW6       29.93F
HOLLAND        PTSUNNY   79  70  74 SW13      29.95F
GRAND RAPIDS   CLOUDY    73  70  90 S5        29.96R
IONIA          CLOUDY    71  68  90 S8        29.95F
KALAMAZOO      PTSUNNY   84  68  58 W14       29.97F
LUDINGTON      CLOUDY    73  70  88 W5        29.92S
MARSHALL       MOSUNNY   85  71  63 SW7       29.97F HX  90
MOUNT PLEASANT RAIN      70  67  92 S12G18    29.94S
MUSKEGON       PTSUNNY   77  69  76 SW9       29.93F
SOUTH HAVEN    PTSUNNY   82  68  63 SW9       29.96S
$$
MIZ016>042-031700-
NORTHERN LOWER MICHIGAN

CITY           SKY/WX    TMP DP  RH WIND       PRES   REMARKS
ALPENA         CLOUDY    70  66  87 N7        29.95F
BEAVER ISLAND  MOSUNNY   72  65  77 SE10      29.94S
BELLAIRE       CLOUDY    69  65  88 CALM      29.93S
CADILLAC       CLOUDY    69  67  93 S3        29.94S
CHARLEVOIX     CLOUDY    68  65  90 SE9       29.96S
FRANKFORT      CLOUDY    70  68  94 CALM      29.90S
GAYLORD        CLOUDY    66  65  96 CALM      29.96S
GRAYLING       CLOUDY    66  65  96 E6        29.96S
HARBOR SPRINGS PTSUNNY   70  65  85 E10G16    29.94R
HOUGHTON LAKE  LGT RAIN  66  65  96 CALM      29.96S
MANISTEE       CLOUDY    68  64  88 W6        29.92R VSB 3/4
OSCODA         RAIN      67  66  96 CALM      29.97R
PELLSTON       PTSUNNY   71  65  81 E6        29.95S
ROGERS CITY    CLOUDY    68  65  89 NE5       29.97S
TRAVERSE CITY  CLOUDY    70  67  90 SE6       29.91R
$$
MIZ007>008-015-031700-
EASTERN UPPER MICHIGAN

CITY           SKY/WX    TMP DP  RH WIND       PRES   REMARKS
KINROSS        PTSUNNY   72  64  78 E10       29.98S
MACKINAC ISLAN CLOUDY    67  64  89 E13G18    29.95S
NEWBERRY       MOSUNNY   76  64  66 E10G16    29.97S
S. S. MARIE    PTSUNNY   75  64  68 VRB5      29.97S
MUNISING         N/A     72  64  76 NE8       29.98S
$$
MIZ004>006-011>014-085-031700-
CENTRAL UPPER MICHIGAN

CITY           SKY/WX    TMP DP  RH WIND       PRES   REMARKS
MANISTIQUE     CLOUDY    73  64  73 CALM      29.96S
ESCANABA       MOSUNNY   73  66  78 NE8       29.94S
MENOMINEE      CLOUDY    68  64  88 NE8       29.94R
SAWYER-GWINN   PTSUNNY   68  63  83 N9        30.00
$$
MIZ001>003-009>011-084-031700-
WESTERN UPPER MICHIGAN

CITY           SKY/WX    TMP DP  RH WIND       PRES   REMARKS
IRON MOUNTAIN  CLOUDY    68  64  87 NE5       29.99R
HOUGHTON       SUNNY     71  57  61 SE5       30.00S
COPPER HARBOR    N/A     63  57  81 E7        30.00S
IRONWOOD       SUNNY     70  63  78 E6        29.97F
$$

ABBREVIATIONS USED IN REMARKS
   TC - TEMPERATURE IN CELSIUS
  WCI - WIND CHILL INDEX
   HX - HEAT INDEX
  VSB - VISIBILITY




USA.gov is the U.S. government's official web portal to all federal, state and local government web resources and services.